Simultaneous Nadir Overpasses (SNOs) Predictions

Prediction of SNOs between GOES-14 and NPP Satellite Orbit:

Table of predicted SNOs for the next 14.0 days since TLE Epoch: 3/30/2024
Index Date Time (GOES-14) GOES-14 Lat,Lon NPP Lat,Lon Distance(km) Time Diff (sec)
1 03/31/2024 20:40:34 -0.16,-108.52 -0.27,-109.12 68.20 80
2 04/01/2024 20:24:29 -0.16,-108.52 0.72,-104.59 448.15 80
3 04/03/2024 08:46:17 0.17,-108.49 0.45,-109.86 155.30 80
4 04/04/2024 08:24:53 0.17,-108.49 -0.54,-105.33 360.60 80
5 04/05/2024 20:46:50 -0.17,-108.51 -0.63,-110.64 242.12 80
6 04/06/2024 20:30:46 -0.17,-108.52 0.37,-106.11 274.37 80
7 04/08/2024 08:52:34 0.17,-108.50 0.79,-111.39 328.03 80
8 04/09/2024 08:31:10 0.17,-108.50 -0.22,-106.86 188.01 80
9 04/10/2024 20:53:06 -0.17,-108.51 -1.00,-112.16 415.53 80
10 04/11/2024 20:37:01 -0.17,-108.52 0.01,-107.63 100.87 80
